Redmond, OR

6:22 PM PDT on September 22, 2017 (GMT -0700)
Roberts Field Airport

Weather History for KRDM - August, 2014

Change the Weather History Date:

Monday, August 4, 2014

  Actual Average Record
Temperature  
Mean Temperature 75 °F 67 °F  
Max Temperature 93 °F 87 °F 107 °F (1998)
Min Temperature 56 °F 47 °F 37 °F (1950)
Degree Days  
Heating Degree Days 0 2  
Month to date heating degree days 0 5  
Since 1 June heating degree days 254 291  
Since 1 July heating degree days 31 74  
Cooling Degree Days 10 4  
Month to date cooling degree days 38 16  
Year to date cooling degree days 232 142  
Since 1 June cooling degree days 232 137  
Growing Degree Days 25 (Base 50)    
Moisture  
Dew Point 47 °F    
Average Humidity 45    
Maximum Humidity 72    
Minimum Humidity 18    
Precipitation  
Precipitation 0.00 in 0.01 in 0.07 in (2004)
Month to date precipitation 0.18 0.06  
Year to date precipitation 4.22 5.29  
Sea Level Pressure  
Sea Level Pressure 29.90 in    
Wind  
Wind Speed 6 mph (NNW)    
Max Wind Speed 16 mph    
Max Gust Speed 21 mph    
Visibility 10 miles    
Events      
T = Trace of Precipitation, MM = Missing Value Source: NWS Daily Summary

Daily Weather History Graph

Daily Weather History Graph

Search for Another Location

Airport or City:

Trip Planner

Search our weather history database for the weather conditions in past years. The results will help you decide how hot, cold, wet, or windy it might be!

Date:

Astronomy

Aug. 04, 2014 Rise Set
Actual Time 5:55 AM PDT 8:25 PM PDT
Civil Twilight 5:22 AM PDT 8:57 PM PDT
Nautical Twilight 4:41 AM PDT 9:38 PM PDT
Astronomical Twilight 3:55 AM PDT 10:24 PM PDT
Moon 2:42 PM PDT (8/4) 12:07 AM PDT (8/4)
Length of Visible Light 15h 34m
Length of Day
14h 29m
First Quarter, 58% of the Moon is Illuminated
Aug 4
First Quarter
Aug 10
Full
Aug 17
Last Quarter
Aug 25
New
Sep 2
First Quarter

Hourly Weather History & Observations

Time (PDT) Temp. Heat Index Dew Point Humidity Pressure Visibility Wind Dir Wind Speed Gust Speed Precip Events Conditions
12:56 AM 68.0 °F - 46.9 °F 47% 29.92 in 10.0 mi WNW 8.1 mph - N/A   Clear
1:56 AM 63.0 °F - 46.9 °F 56% 29.92 in 10.0 mi Calm Calm - N/A   Clear
2:56 AM 62.1 °F - 48.0 °F 60% 29.92 in 10.0 mi Calm Calm - N/A   Partly Cloudy
3:56 AM 59.0 °F - 48.0 °F 67% 29.92 in 10.0 mi Calm Calm - N/A   Clear
4:56 AM 60.1 °F - 46.9 °F 62% 29.92 in 10.0 mi South 4.6 mph - N/A   Partly Cloudy
5:56 AM 57.0 °F - 46.9 °F 69% 29.94 in 10.0 mi SSE 3.5 mph - N/A   Clear
6:56 AM 57.9 °F - 48.0 °F 70% 29.94 in 10.0 mi SSE 3.5 mph - N/A   Clear
7:56 AM 68.0 °F - 48.0 °F 49% 29.94 in 10.0 mi Calm Calm - N/A   Clear
8:56 AM 72.0 °F - 46.9 °F 41% 29.94 in 10.0 mi Calm Calm - N/A   Clear
9:56 AM 77.0 °F - 48.9 °F 37% 29.95 in 10.0 mi Variable 4.6 mph - N/A   Clear
10:56 AM 81.0 °F - 50.0 °F 34% 29.94 in 10.0 mi North 6.9 mph - N/A   Clear
11:56 AM 84.9 °F - 48.9 °F 29% 29.91 in 10.0 mi Calm Calm - N/A   Clear
12:56 PM 87.1 °F - 46.0 °F 24% 29.90 in 10.0 mi North 5.8 mph - N/A   Clear
1:56 PM 90.0 °F - 45.0 °F 21% 29.89 in 10.0 mi North 12.7 mph - N/A   Clear
2:56 PM 93.0 °F - 46.0 °F 20% 29.86 in 10.0 mi North 11.5 mph - N/A   Clear
3:56 PM 93.0 °F - 44.1 °F 18% 29.85 in 10.0 mi NNW 12.7 mph 18.4 mph N/A   Clear
4:56 PM 91.0 °F - 43.0 °F 19% 29.84 in 10.0 mi NNW 11.5 mph - N/A   Clear
5:56 PM 90.0 °F - 43.0 °F 19% 29.84 in 10.0 mi NNW 10.4 mph - N/A   Clear
7:56 PM 86.0 °F - 43.0 °F 22% 29.85 in 10.0 mi NNW 8.1 mph - N/A   Clear
8:56 PM 82.0 °F 81.2 °F 53.1 °F 37% 29.87 in 10.0 mi NNW 10.4 mph - N/A   Clear
10:56 PM 75.0 °F - 48.0 °F 38% 29.91 in 10.0 mi NNW 5.8 mph - N/A   Clear
11:56 PM 73.0 °F - 53.1 °F 49% 29.93 in 10.0 mi WSW 8.1 mph - N/A   Partly Cloudy